星链-36271(STARLINK-36271)

导读

STARLINK-36271(NORAD编号68703)是SpaceX星链(Starlink)低轨互联网星座中的一颗卫星,该项目由SpaceX在2015年启动,目标部署超4.2万颗卫星,打造覆盖全球的高速天基互联网系统。星链卫星集中运行在300-550公里近地轨道,STARLINK-36271作为组网卫星,采用Ku/Ka频段,支持卫星通信互联,可为偏远地区、海洋、航空等传统网络覆盖空白场景提供高速互联网接入,助力星链实现全球无缝网络覆盖的建设目标。

Basic Information
目录编号:
68703
目录名称:
STARLINK-36271
国际标识:
2026-081E
轨道中心:
EARTH
卫星名称:
星链-36271
卫星全名:
星链-36271(STARLINK-36271)
卫星状态:
在轨 (已飞行105 天)
发射日期:
2026-04-14 UTC
国别 :
美国 (US)
星等 :
--
Orbit Information
数据来源 国际轨道数据 AOE轨道数据
星历时间 2026-07-27T11:01:07+0800
23小时前
查看轨道信息
2026-07-25T00:00:00+0800
3天前
查看轨道信息
半长轴 6840.713km 6840.871km
偏心率 0.0000965 0.0002418
轨道倾角 53.158° 53.158°
近地点辐角 63.961° 187.114°
升交点赤经 104.833° 116.327°
平近点角 296.149° 261.598°
近地点 461.915km 461.079km
远地点 463.237km 464.389km
周期 93.845分钟 93.848分钟
每日圈数 15.344429 15.343899
Detailed Information
固有亮度:
5
最大亮度:
2.5
卫星平台:
Starlink V1.0
覆盖范围:
全球
运营商:
太空探索技术公司
运营商所在国:
美国
制造商(研发单位):
太空探索技术公司
制造商所在国:
美国
使用方式:
暂无
Satellite Introduction
Starlink 计划是 SpaceX 推出的全球卫星互联网项目,通过发射低轨道卫星,为全球尤其是偏远地区提供高速、低延迟的互联网服务。自 2019 年起,Starlink 已部署数千颗卫星,旨在缩小全球数字鸿沟,推动互联网普及。该项目还为军事、航空等行业提供通信支持,带来广泛经济效益。
2D Orbit Map
3D Orbit Map
Orbit Altitude Analysis Chart
Orbit Inclination Analysis Chart
Orbit Comprehensive Analysis Chart
View Comprehensive Chart